Hourly Data Report for September 04, 2017

All times are specified in Local Standard Time (LST). Add 1 hour to adjust for Daylight Saving Time where and when it is observed.

EDMUNDSTON
NEW BRUNSWICK

47°25'00.000" N
68°19'28.040" W
154.20 m
8101303
71590
ERM

Download Data

Hourly Data (September 2017)
Hourly Data Report for September 4, 2017
Temp Definition
°C
Dew Point Temp Definition
°C
Rel Hum Definition
%
Wind Dir Definition
10's deg

Wind Spd Definition
km/h
Visibility Definition
km
Stn Press Definition
kPa
Hmdx Definition


Wind Chill Definition


Weather Definition


TIME
00:00 11.3 10.2 93 0 1   99.05     LegendNANA
01:00 11.2 10.1 93 0 1   98.90     LegendNANA
02:00 11.6 10.4 92 7 2   98.72     LegendNANA
03:00 11.4 10.3 93 26 2   98.63     LegendNANA
04:00 11.3 10.3 94   0   98.56     LegendNANA
05:00 11.1 10.2 94 28 4   98.46     LegendNANA
06:00 11.1 10.2 94 33 5   98.38     LegendNANA
07:00 11.1 10.2 94 31 4   98.46     LegendNANA
08:00 11.6 10.6 94 31 5   98.44     LegendNANA
09:00 12.1 10.8 92 32 8   98.45     LegendNANA
10:00 13.1 11.3 89 31 7   98.46     LegendNANA
11:00 13.9 11.5 85 33 7   98.50     LegendNANA
12:00 15.2 11.3 78 27 10   98.54     LegendNANA
13:00 14.5 11.4 82 26 9   98.57     LegendNANA
14:00 15.6 11.3 76 23 8   98.54     LegendNANA
15:00 17.9 11.4 66 22 11   98.50     LegendNANA
16:00 17.5 11.9 69 24 9   98.51     LegendNANA
17:00 18.1 12.0 67 8 8   98.50     LegendNANA
18:00 16.8 13.0 78 14 9   98.50     LegendNANA
19:00 16.8 12.4 76 14 7   98.53     LegendNANA
20:00 16.3 12.8 79 14 8   98.50     LegendNANA
21:00 16.7 12.8 78 16 8   98.50     LegendNANA
22:00 16.5 13.1 80 16 8   98.53     LegendNANA
23:00 16.5 13.0 80 16 9   98.47     LegendNANA

Notes on Data Quality.

Legend

  • E = Estimated
  • M = Missing
  • NA = Not Available
  • ‡ = Partner data that is not subject to review by the National Climate Archives
Date modified: